Tracking 21076 objects as of 10-Aug-2020
HD Live streaming from Space Station
objects crossing your sky now
Track the most recent launched group of Starlink satellites

FENGYUN 1C DEB

Track FENGYUN 1C DEB now!
10-day predictions


NORAD ID: 29819
Int'l Code: 1999-025DM
Perigee: 751.8 km
Apogee: 1,050.0 km
Inclination: 98.8 °
Period: 102.9 minutes
Semi major axis: 7271 km
RCS: 0.055 m2 (small)
Launch date: May 10, 1999
Source: People's Republic of China (PRC)
Launch site: Taiyaun Space Center, China (TSC)

Note: This is SATELLITE DEBRIS
aabbcc
Your satellite tracking list
Your tracking list is empty




NASA's NSSDC Master Catalog

Two Line Element Set (TLE):
1 29819U 99025DM  20222.93060479 +.00000530 +00000-0 +32310-3 0  9990
2 29819 098.8015 264.0268 0205062 112.9685 010.0599 14.00007225693088
Source of the keplerian elements: AFSPC